Year,Month,Day,Hour,Minute,Value (Times are PST for windspeed in km/hr)
2015,08,29,00,00,0.30
2015,08,29,00,01,0.90
2015,08,29,00,02,0.10
2015,08,29,00,03,0.10
2015,08,29,00,04,0.20
2015,08,29,00,05,0.20
2015,08,29,00,06,0.00
2015,08,29,00,07,0.00
2015,08,29,00,08,0.00
2015,08,29,00,09,0.20
2015,08,29,00,10,0.00
2015,08,29,00,11,0.60
2015,08,29,00,12,1.40
2015,08,29,00,13,0.40
2015,08,29,00,14,0.40
2015,08,29,00,15,0.80
2015,08,29,00,16,0.00
2015,08,29,00,17,0.10
2015,08,29,00,18,0.10
2015,08,29,00,19,0.50
2015,08,29,00,20,2.10
2015,08,29,00,21,3.30
2015,08,29,00,22,0.30
2015,08,29,00,23,1.50
2015,08,29,00,24,2.30
2015,08,29,00,25,2.60
2015,08,29,00,26,1.20
2015,08,29,00,27,0.70
2015,08,29,00,28,0.40
2015,08,29,00,29,0.00
2015,08,29,00,30,0.00
2015,08,29,00,31,0.20
2015,08,29,00,32,1.10
2015,08,29,00,33,0.60
2015,08,29,00,34,2.80
2015,08,29,00,35,0.80
2015,08,29,00,36,0.30
2015,08,29,00,37,0.60
2015,08,29,00,38,0.40
2015,08,29,00,39,0.20
2015,08,29,00,40,0.50
2015,08,29,00,41,3.10
2015,08,29,00,42,0.00
2015,08,29,00,43,0.50
2015,08,29,00,44,2.50
2015,08,29,00,45,2.90
2015,08,29,00,46,4.20
2015,08,29,00,47,2.80
2015,08,29,00,48,1.00
2015,08,29,00,49,2.30
2015,08,29,00,50,1.40
2015,08,29,00,51,1.30
2015,08,29,00,52,0.10
2015,08,29,00,53,0.20
2015,08,29,00,54,2.10
2015,08,29,00,55,0.30
2015,08,29,00,56,0.00
2015,08,29,00,57,0.00
2015,08,29,00,58,2.30
2015,08,29,00,59,2.40
2015,08,29,01,00,3.10
2015,08,29,01,01,0.70
2015,08,29,01,02,0.60
2015,08,29,01,03,0.30
2015,08,29,01,04,0.50
2015,08,29,01,05,0.00
2015,08,29,01,06,0.70
2015,08,29,01,07,0.50
2015,08,29,01,08,3.70
2015,08,29,01,09,0.40
2015,08,29,01,10,0.20
2015,08,29,01,11,0.90
2015,08,29,01,12,0.30
2015,08,29,01,13,0.00
2015,08,29,01,14,0.90
2015,08,29,01,15,0.60
2015,08,29,01,16,0.00
2015,08,29,01,17,3.00
2015,08,29,01,18,1.30
2015,08,29,01,19,3.50
2015,08,29,01,20,3.00
2015,08,29,01,21,3.10
2015,08,29,01,22,3.60
2015,08,29,01,23,1.40
2015,08,29,01,24,0.00
2015,08,29,01,25,2.80
2015,08,29,01,26,3.50
2015,08,29,01,27,2.00
2015,08,29,01,28,2.50
2015,08,29,01,29,0.30
2015,08,29,01,30,2.00
2015,08,29,01,31,2.20
2015,08,29,01,32,0.50
2015,08,29,01,33,3.30
2015,08,29,01,34,3.10
2015,08,29,01,35,5.80
2015,08,29,01,36,0.10
2015,08,29,01,37,0.00
2015,08,29,01,38,0.50
2015,08,29,01,39,1.10
2015,08,29,01,40,0.00
2015,08,29,01,41,0.20
2015,08,29,01,42,1.70
2015,08,29,01,43,4.20
2015,08,29,01,44,3.40
2015,08,29,01,45,2.00
2015,08,29,01,46,2.00
2015,08,29,01,47,3.50
2015,08,29,01,48,3.80
2015,08,29,01,49,1.30
2015,08,29,01,50,1.50
2015,08,29,01,51,2.00
2015,08,29,01,52,1.30
2015,08,29,01,53,1.00
2015,08,29,01,54,0.00
2015,08,29,01,55,3.50
2015,08,29,01,56,1.30
2015,08,29,01,57,0.70
2015,08,29,01,58,0.00
2015,08,29,01,59,0.30
2015,08,29,02,00,0.50
2015,08,29,02,01,0.80
2015,08,29,02,02,1.90
2015,08,29,02,03,0.20
2015,08,29,02,04,0.10
2015,08,29,02,05,0.00
2015,08,29,02,06,0.00
2015,08,29,02,07,0.00
2015,08,29,02,08,0.70
2015,08,29,02,09,0.30
2015,08,29,02,10,0.50
2015,08,29,02,11,0.00
2015,08,29,02,12,0.10
2015,08,29,02,13,0.20
2015,08,29,02,14,3.10
2015,08,29,02,15,0.40
2015,08,29,02,16,0.90
2015,08,29,02,17,0.90
2015,08,29,02,18,0.00
2015,08,29,02,19,0.10
2015,08,29,02,20,0.00
2015,08,29,02,21,0.00
2015,08,29,02,22,0.00
2015,08,29,02,23,0.80
2015,08,29,02,24,0.20
2015,08,29,02,25,0.20
2015,08,29,02,26,0.30
2015,08,29,02,27,0.60
2015,08,29,02,28,0.00
2015,08,29,02,29,0.50
2015,08,29,02,30,0.00
2015,08,29,02,31,0.60
2015,08,29,02,32,0.50
2015,08,29,02,33,0.80
2015,08,29,02,34,2.20
2015,08,29,02,35,1.40
2015,08,29,02,36,4.10
2015,08,29,02,37,3.40
2015,08,29,02,38,5.20
2015,08,29,02,39,3.40
2015,08,29,02,40,4.10
2015,08,29,02,41,3.70
2015,08,29,02,42,1.90
2015,08,29,02,43,0.70
2015,08,29,02,44,0.00
2015,08,29,02,45,0.00
2015,08,29,02,46,0.00
2015,08,29,02,47,0.00
2015,08,29,02,48,0.30
2015,08,29,02,49,0.00
2015,08,29,02,50,1.70
2015,08,29,02,51,3.60
2015,08,29,02,52,3.50
2015,08,29,02,53,2.70
2015,08,29,02,54,3.50
2015,08,29,02,55,1.10
2015,08,29,02,56,1.80
2015,08,29,02,57,2.50
2015,08,29,02,58,0.60
2015,08,29,02,59,0.60
2015,08,29,03,00,0.30
2015,08,29,03,01,0.20
2015,08,29,03,02,0.00
2015,08,29,03,03,0.00
2015,08,29,03,04,0.50
2015,08,29,03,05,0.00
2015,08,29,03,06,0.20
2015,08,29,03,07,0.00
2015,08,29,03,08,0.30
2015,08,29,03,09,0.40
2015,08,29,03,10,1.00
2015,08,29,03,11,1.50
2015,08,29,03,12,1.80
2015,08,29,03,13,0.00
2015,08,29,03,14,0.90
2015,08,29,03,15,0.00
2015,08,29,03,16,0.00
2015,08,29,03,17,0.20
2015,08,29,03,18,0.00
2015,08,29,03,19,0.10
2015,08,29,03,20,0.30
2015,08,29,03,21,0.00
2015,08,29,03,22,0.20
2015,08,29,03,23,0.00
2015,08,29,03,24,0.00
2015,08,29,03,25,4.40
2015,08,29,03,26,0.40
2015,08,29,03,27,0.10
2015,08,29,03,28,0.80
2015,08,29,03,29,1.00
2015,08,29,03,30,0.20
2015,08,29,03,31,0.00
2015,08,29,03,32,0.90
2015,08,29,03,33,0.60
2015,08,29,03,34,0.40
2015,08,29,03,35,1.40
2015,08,29,03,36,2.00
2015,08,29,03,37,1.60
2015,08,29,03,38,0.20
2015,08,29,03,39,2.10
2015,08,29,03,40,1.30
2015,08,29,03,41,0.00
2015,08,29,03,42,0.20
2015,08,29,03,43,0.20
2015,08,29,03,44,0.30
2015,08,29,03,45,0.20
2015,08,29,03,46,1.40
2015,08,29,03,47,0.00
2015,08,29,03,48,0.00
2015,08,29,03,49,0.00
2015,08,29,03,50,0.10
2015,08,29,03,51,0.00
2015,08,29,03,52,0.30
2015,08,29,03,53,2.30
2015,08,29,03,54,0.20
2015,08,29,03,55,1.00
2015,08,29,03,56,0.80
2015,08,29,03,57,1.40
2015,08,29,03,58,0.50
2015,08,29,03,59,0.30
2015,08,29,04,00,0.70
2015,08,29,04,01,0.90
2015,08,29,04,02,1.10
2015,08,29,04,03,1.00
2015,08,29,04,04,0.00
2015,08,29,04,05,2.80
2015,08,29,04,06,0.10
2015,08,29,04,07,0.80
2015,08,29,04,08,1.40
2015,08,29,04,09,2.70
2015,08,29,04,10,0.30
2015,08,29,04,11,0.50
2015,08,29,04,12,0.30
2015,08,29,04,13,1.40
2015,08,29,04,14,0.20
2015,08,29,04,15,0.00
2015,08,29,04,16,0.00
2015,08,29,04,17,0.10
2015,08,29,04,18,0.30
2015,08,29,04,19,0.90
2015,08,29,04,20,0.50
2015,08,29,04,21,0.00
2015,08,29,04,22,0.00
2015,08,29,04,23,0.00
2015,08,29,04,24,0.00
2015,08,29,04,25,0.00
2015,08,29,04,26,0.50
2015,08,29,04,27,0.00
2015,08,29,04,28,0.00
2015,08,29,04,29,0.50
2015,08,29,04,30,0.20
2015,08,29,04,31,0.00
2015,08,29,04,32,0.10
2015,08,29,04,33,0.50
2015,08,29,04,34,0.90
2015,08,29,04,35,1.10
2015,08,29,04,36,0.00
2015,08,29,04,37,0.20
2015,08,29,04,38,0.70
2015,08,29,04,39,0.20
2015,08,29,04,40,0.30
2015,08,29,04,41,2.70
2015,08,29,04,42,0.00
2015,08,29,04,43,1.40
2015,08,29,04,44,0.90
2015,08,29,04,45,0.90
2015,08,29,04,46,0.10
2015,08,29,04,47,0.00
2015,08,29,04,48,0.00
2015,08,29,04,49,0.00
2015,08,29,04,50,0.00
2015,08,29,04,51,0.20
2015,08,29,04,52,0.10
2015,08,29,04,53,0.20
2015,08,29,04,54,0.00
2015,08,29,04,55,0.00
2015,08,29,04,56,0.00
2015,08,29,04,57,1.70
2015,08,29,04,58,0.30
2015,08,29,04,59,0.00
2015,08,29,05,00,0.00
2015,08,29,05,01,2.00
2015,08,29,05,02,2.60
2015,08,29,05,03,0.50
2015,08,29,05,04,5.40
2015,08,29,05,05,0.20
2015,08,29,05,06,0.10
2015,08,29,05,07,0.00
2015,08,29,05,08,0.30
2015,08,29,05,09,2.20
2015,08,29,05,10,2.40
2015,08,29,05,11,2.20
2015,08,29,05,12,2.50
2015,08,29,05,13,1.30
2015,08,29,05,14,1.10
2015,08,29,05,15,1.10
2015,08,29,05,16,0.40
2015,08,29,05,17,1.40
2015,08,29,05,18,2.70
2015,08,29,05,19,3.50
2015,08,29,05,20,0.70
2015,08,29,05,21,0.20
2015,08,29,05,22,0.90
2015,08,29,05,23,2.70
2015,08,29,05,24,0.10
2015,08,29,05,25,0.00
2015,08,29,05,26,1.40
2015,08,29,05,27,0.70
2015,08,29,05,28,1.00
2015,08,29,05,29,0.30
2015,08,29,05,30,1.20
2015,08,29,05,31,1.30
2015,08,29,05,32,0.10
2015,08,29,05,33,0.00
2015,08,29,05,34,0.30
2015,08,29,05,35,0.20
2015,08,29,05,36,1.80
2015,08,29,05,37,0.60
2015,08,29,05,38,0.70
2015,08,29,05,39,4.90
2015,08,29,05,40,7.20
2015,08,29,05,41,6.80
2015,08,29,05,42,7.20
2015,08,29,05,43,9.50
2015,08,29,05,44,13.80
2015,08,29,05,45,9.70
2015,08,29,05,46,7.30
2015,08,29,05,47,8.00
2015,08,29,05,48,10.30
2015,08,29,05,49,4.70
2015,08,29,05,50,1.80
2015,08,29,05,51,5.90
2015,08,29,05,52,8.30
2015,08,29,05,53,13.20
2015,08,29,05,54,5.90
2015,08,29,05,55,11.90
2015,08,29,05,56,10.60
2015,08,29,05,57,8.00
2015,08,29,05,58,8.40
2015,08,29,05,59,1.90
2015,08,29,06,00,1.00
2015,08,29,06,01,0.20
2015,08,29,06,02,1.10
2015,08,29,06,03,1.10
2015,08,29,06,04,0.00
2015,08,29,06,05,0.00
2015,08,29,06,06,0.30
2015,08,29,06,07,0.90
2015,08,29,06,08,2.30
2015,08,29,06,09,1.80
2015,08,29,06,10,0.00
2015,08,29,06,11,0.00
2015,08,29,06,12,0.00
2015,08,29,06,13,0.00
2015,08,29,06,14,0.00
2015,08,29,06,15,0.00
2015,08,29,06,16,0.00
2015,08,29,06,17,0.00
2015,08,29,06,18,0.10
2015,08,29,06,19,1.40
2015,08,29,06,20,2.20
2015,08,29,06,21,3.10
2015,08,29,06,22,2.70
2015,08,29,06,23,0.30
2015,08,29,06,24,0.00
2015,08,29,06,25,2.70
2015,08,29,06,26,1.60
2015,08,29,06,27,0.00
2015,08,29,06,28,0.00
2015,08,29,06,29,0.00
2015,08,29,06,30,0.00
2015,08,29,06,31,0.00
2015,08,29,06,32,0.00
2015,08,29,06,33,0.30
2015,08,29,06,34,1.40
2015,08,29,06,35,1.10
2015,08,29,06,36,2.40
2015,08,29,06,37,2.60
2015,08,29,06,38,4.30
2015,08,29,06,39,5.40
2015,08,29,06,40,1.50
2015,08,29,06,41,5.00
2015,08,29,06,42,3.30
2015,08,29,06,43,0.30
2015,08,29,06,44,4.20
2015,08,29,06,45,0.90
2015,08,29,06,46,3.10
2015,08,29,06,47,4.80
2015,08,29,06,48,5.90
2015,08,29,06,49,2.70
2015,08,29,06,50,7.90
2015,08,29,06,51,5.40
2015,08,29,06,52,5.90
2015,08,29,06,53,2.10
2015,08,29,06,54,2.30
2015,08,29,06,55,2.20
2015,08,29,06,56,3.80
2015,08,29,06,57,1.90
2015,08,29,06,58,4.70
2015,08,29,06,59,2.00
2015,08,29,07,00,3.80
2015,08,29,07,01,2.70
2015,08,29,07,02,1.90
2015,08,29,07,03,2.40
2015,08,29,07,04,2.50
2015,08,29,07,05,3.90
2015,08,29,07,06,1.70
2015,08,29,07,07,1.70
2015,08,29,07,08,2.60
2015,08,29,07,09,1.90
2015,08,29,07,10,0.80
2015,08,29,07,11,2.70
2015,08,29,07,12,1.60
2015,08,29,07,13,4.30
2015,08,29,07,14,2.50
2015,08,29,07,15,4.30
2015,08,29,07,16,4.50
2015,08,29,07,17,1.90
2015,08,29,07,18,1.00
2015,08,29,07,19,2.20
2015,08,29,07,20,1.00
2015,08,29,07,21,2.70
2015,08,29,07,22,3.20
2015,08,29,07,23,0.80
2015,08,29,07,24,3.80
2015,08,29,07,25,0.30
2015,08,29,07,26,0.50
2015,08,29,07,27,2.50
2015,08,29,07,28,1.90
2015,08,29,07,29,1.70
2015,08,29,07,30,1.00
2015,08,29,07,31,1.30
2015,08,29,07,32,1.20
2015,08,29,07,33,0.10
2015,08,29,07,34,4.00
2015,08,29,07,35,0.60
2015,08,29,07,36,0.80
2015,08,29,07,37,0.80
2015,08,29,07,38,3.80
2015,08,29,07,39,3.10
2015,08,29,07,40,3.80
2015,08,29,07,41,0.50
2015,08,29,07,42,0.50
2015,08,29,07,43,0.10
2015,08,29,07,44,2.10
2015,08,29,07,45,2.70
2015,08,29,07,46,1.80
2015,08,29,07,47,4.10
2015,08,29,07,48,2.10
2015,08,29,07,49,1.50
2015,08,29,07,50,3.80
2015,08,29,07,51,1.00
2015,08,29,07,52,0.00
2015,08,29,07,53,3.10
2015,08,29,07,54,2.60
2015,08,29,07,55,0.50
2015,08,29,07,56,0.20
2015,08,29,07,57,3.10
2015,08,29,07,58,3.10
2015,08,29,07,59,1.90
2015,08,29,08,00,0.00
2015,08,29,08,01,0.00
2015,08,29,08,02,0.00
2015,08,29,08,03,0.00
2015,08,29,08,04,0.00
2015,08,29,08,05,0.00
2015,08,29,08,06,0.00
2015,08,29,08,07,0.00
2015,08,29,08,08,0.00
2015,08,29,08,09,0.00
2015,08,29,08,10,0.00
2015,08,29,08,11,0.00
2015,08,29,08,12,0.00
2015,08,29,08,13,0.00
2015,08,29,08,14,0.10
2015,08,29,08,15,0.00
2015,08,29,08,16,0.00
2015,08,29,08,17,0.00
2015,08,29,08,18,3.20
2015,08,29,08,19,0.40
2015,08,29,08,20,2.70
2015,08,29,08,21,3.10
2015,08,29,08,22,1.30
2015,08,29,08,23,0.40
2015,08,29,08,24,1.50
2015,08,29,08,25,2.10
2015,08,29,08,26,4.30
2015,08,29,08,27,5.00
2015,08,29,08,28,4.80
2015,08,29,08,29,0.20
2015,08,29,08,30,0.20
2015,08,29,08,31,0.00
2015,08,29,08,32,0.00
2015,08,29,08,33,1.00
2015,08,29,08,34,1.90
2015,08,29,08,35,1.20
2015,08,29,08,36,0.00
2015,08,29,08,37,0.40
2015,08,29,08,38,0.70
2015,08,29,08,39,1.60
2015,08,29,08,40,6.50
2015,08,29,08,41,0.40
2015,08,29,08,42,0.50
2015,08,29,08,43,0.00
2015,08,29,08,44,3.50
2015,08,29,08,45,2.70
2015,08,29,08,46,1.80
2015,08,29,08,47,2.50
2015,08,29,08,48,1.80
2015,08,29,08,49,0.10
2015,08,29,08,50,2.90
2015,08,29,08,51,0.20
2015,08,29,08,52,0.50
2015,08,29,08,53,2.80
2015,08,29,08,54,3.00
2015,08,29,08,55,2.20
2015,08,29,08,56,1.50
2015,08,29,08,57,0.00
2015,08,29,08,58,0.50
2015,08,29,08,59,2.10
2015,08,29,09,00,1.10
2015,08,29,09,01,4.40
2015,08,29,09,02,1.00
2015,08,29,09,03,1.80
2015,08,29,09,04,3.90
2015,08,29,09,05,3.10
2015,08,29,09,06,0.80
2015,08,29,09,07,0.30
2015,08,29,09,08,6.10
2015,08,29,09,09,5.60
2015,08,29,09,10,3.50
2015,08,29,09,11,0.00
2015,08,29,09,12,2.00
2015,08,29,09,13,0.70
2015,08,29,09,14,3.50
2015,08,29,09,15,6.40
2015,08,29,09,16,2.10
2015,08,29,09,17,1.40
2015,08,29,09,18,2.70
2015,08,29,09,19,1.70
2015,08,29,09,20,3.70
2015,08,29,09,21,1.90
2015,08,29,09,22,1.40
2015,08,29,09,23,0.90
2015,08,29,09,24,2.90
2015,08,29,09,25,4.20
2015,08,29,09,26,1.80
2015,08,29,09,27,0.40
2015,08,29,09,28,1.40
2015,08,29,09,29,2.10
2015,08,29,09,30,1.70
2015,08,29,09,31,0.00
2015,08,29,09,32,0.00
2015,08,29,09,33,0.00
2015,08,29,09,34,0.00
2015,08,29,09,35,0.20
2015,08,29,09,36,4.10
2015,08,29,09,37,2.10
2015,08,29,09,38,1.90
2015,08,29,09,39,1.90
2015,08,29,09,40,0.20
2015,08,29,09,41,3.00
2015,08,29,09,42,3.30
2015,08,29,09,43,4.80
2015,08,29,09,44,6.00
2015,08,29,09,45,5.20
2015,08,29,09,46,6.30
2015,08,29,09,47,1.50
2015,08,29,09,48,1.00
2015,08,29,09,49,5.00
2015,08,29,09,50,3.70
2015,08,29,09,51,2.80
2015,08,29,09,52,4.50
2015,08,29,09,53,8.00
2015,08,29,09,54,3.30
2015,08,29,09,55,2.00
2015,08,29,09,56,3.50
2015,08,29,09,57,9.00
2015,08,29,09,58,6.80
2015,08,29,09,59,5.80
2015,08,29,10,00,7.60
2015,08,29,10,01,2.50
2015,08,29,10,02,1.70
2015,08,29,10,03,3.80
2015,08,29,10,04,1.50
2015,08,29,10,05,1.20
2015,08,29,10,06,1.30
2015,08,29,10,07,0.60
2015,08,29,10,08,2.30
2015,08,29,10,09,0.30
2015,08,29,10,10,4.60
2015,08,29,10,11,1.60
2015,08,29,10,12,4.10
2015,08,29,10,13,3.90
2015,08,29,10,14,2.80
2015,08,29,10,15,2.90
2015,08,29,10,16,5.30
2015,08,29,10,17,0.70
2015,08,29,10,18,2.20
2015,08,29,10,19,2.10
2015,08,29,10,20,2.50
2015,08,29,10,21,3.20
2015,08,29,10,22,3.80
2015,08,29,10,23,6.90
2015,08,29,10,24,3.80
2015,08,29,10,25,2.50
2015,08,29,10,26,5.20
2015,08,29,10,27,6.60
2015,08,29,10,28,8.00
2015,08,29,10,29,8.80
2015,08,29,10,30,5.80
2015,08,29,10,31,5.00
2015,08,29,10,32,10.90
2015,08,29,10,33,6.40
2015,08,29,10,34,3.00
2015,08,29,10,35,2.00
2015,08,29,10,36,5.20
2015,08,29,10,37,3.10
2015,08,29,10,38,5.00
2015,08,29,10,39,8.80
2015,08,29,10,40,5.90
2015,08,29,10,41,5.00
2015,08,29,10,42,7.00
2015,08,29,10,43,2.00
2015,08,29,10,44,6.50
2015,08,29,10,45,10.80
2015,08,29,10,46,5.50
2015,08,29,10,47,6.00
2015,08,29,10,48,5.10
2015,08,29,10,49,8.50
2015,08,29,10,50,7.50
2015,08,29,10,51,4.90
2015,08,29,10,52,6.40
2015,08,29,10,53,11.40
2015,08,29,10,54,7.10
2015,08,29,10,55,8.20
2015,08,29,10,56,10.10
2015,08,29,10,57,10.50
2015,08,29,10,58,3.80
2015,08,29,10,59,8.00
2015,08,29,11,00,5.00
2015,08,29,11,01,5.30
2015,08,29,11,02,6.30
2015,08,29,11,03,7.50
2015,08,29,11,04,12.10
2015,08,29,11,05,6.30
2015,08,29,11,06,9.20
2015,08,29,11,07,6.70
2015,08,29,11,08,6.20
2015,08,29,11,09,8.70
2015,08,29,11,10,8.10
2015,08,29,11,11,5.90
2015,08,29,11,12,18.10
2015,08,29,11,13,3.60
2015,08,29,11,14,5.70
2015,08,29,11,15,8.90
2015,08,29,11,16,12.80
2015,08,29,11,17,9.30
2015,08,29,11,18,8.90
2015,08,29,11,19,7.60
2015,08,29,11,20,3.90
2015,08,29,11,21,10.70
2015,08,29,11,22,11.50
2015,08,29,11,23,5.20
2015,08,29,11,24,7.60
2015,08,29,11,25,7.10
2015,08,29,11,26,8.30
2015,08,29,11,27,8.00
2015,08,29,11,28,12.90
2015,08,29,11,29,7.00
2015,08,29,11,30,5.90
2015,08,29,11,31,13.10
2015,08,29,11,32,6.80
2015,08,29,11,33,8.20
2015,08,29,11,34,5.30
2015,08,29,11,35,6.90
2015,08,29,11,36,8.10
2015,08,29,11,37,7.00
2015,08,29,11,38,2.30
2015,08,29,11,39,5.40
2015,08,29,11,40,4.40
2015,08,29,11,41,9.80
2015,08,29,11,42,2.60
2015,08,29,11,43,3.40
2015,08,29,11,44,3.90
2015,08,29,11,45,0.40
2015,08,29,11,46,0.60
2015,08,29,11,47,2.90
2015,08,29,11,48,4.00
2015,08,29,11,49,5.40
2015,08,29,11,50,6.60
2015,08,29,11,51,8.60
2015,08,29,11,52,9.20
2015,08,29,11,53,5.90
2015,08,29,11,54,1.20
2015,08,29,11,55,1.40
2015,08,29,11,56,2.40
2015,08,29,11,57,0.40
2015,08,29,11,58,0.30
2015,08,29,11,59,1.50
2015,08,29,12,00,0.70
2015,08,29,12,01,1.60
2015,08,29,12,02,1.10
2015,08,29,12,03,0.60
2015,08,29,12,04,0.20
2015,08,29,12,05,0.00
2015,08,29,12,06,0.00
2015,08,29,12,07,0.40
2015,08,29,12,08,0.20
2015,08,29,12,09,0.00
2015,08,29,12,10,0.00
2015,08,29,12,11,0.00
2015,08,29,12,12,1.30
2015,08,29,12,13,1.90
2015,08,29,12,14,3.10
2015,08,29,12,15,8.50
2015,08,29,12,16,2.50
2015,08,29,12,17,6.40
2015,08,29,12,18,2.50
2015,08,29,12,19,3.90
2015,08,29,12,20,4.90
2015,08,29,12,21,9.00
2015,08,29,12,22,8.40
2015,08,29,12,23,12.20
2015,08,29,12,24,17.20
2015,08,29,12,25,18.30
2015,08,29,12,26,6.80
2015,08,29,12,27,12.70
2015,08,29,12,28,12.40
2015,08,29,12,29,8.00
2015,08,29,12,30,6.10
2015,08,29,12,31,10.60
2015,08,29,12,32,11.20
2015,08,29,12,33,7.30
2015,08,29,12,34,9.50
2015,08,29,12,35,12.80
2015,08,29,12,36,12.30
2015,08,29,12,37,8.50
2015,08,29,12,38,10.40
2015,08,29,12,39,7.60
2015,08,29,12,40,5.20
2015,08,29,12,41,9.90
2015,08,29,12,42,10.10
2015,08,29,12,43,11.10
2015,08,29,12,44,7.20
2015,08,29,12,45,4.60
2015,08,29,12,46,8.00
2015,08,29,12,47,10.50
2015,08,29,12,48,11.50
2015,08,29,12,49,12.80
2015,08,29,12,50,6.40
2015,08,29,12,51,5.60
2015,08,29,12,52,7.40
2015,08,29,12,53,6.90
2015,08,29,12,54,2.90
2015,08,29,12,55,5.60
2015,08,29,12,56,4.30
2015,08,29,12,57,1.50
2015,08,29,12,58,1.20
2015,08,29,12,59,4.10
2015,08,29,13,00,4.40
2015,08,29,13,01,3.70
2015,08,29,13,02,3.30
2015,08,29,13,03,0.60
2015,08,29,13,04,4.10
2015,08,29,13,05,5.60
2015,08,29,13,06,7.50
2015,08,29,13,07,5.20
2015,08,29,13,08,3.50
2015,08,29,13,09,2.70
2015,08,29,13,10,2.90
2015,08,29,13,11,2.50
2015,08,29,13,12,2.80
2015,08,29,13,13,3.80
2015,08,29,13,14,8.90
2015,08,29,13,15,9.70
2015,08,29,13,16,4.70
2015,08,29,13,17,5.50
2015,08,29,13,18,8.20
2015,08,29,13,19,6.40
2015,08,29,13,20,6.20
2015,08,29,13,21,5.10
2015,08,29,13,22,4.60
2015,08,29,13,23,5.80
2015,08,29,13,24,3.00
2015,08,29,13,25,8.40
2015,08,29,13,26,5.20
2015,08,29,13,27,10.30
2015,08,29,13,28,5.60
2015,08,29,13,29,8.40
2015,08,29,13,30,10.40
2015,08,29,13,31,7.00
2015,08,29,13,32,4.90
2015,08,29,13,33,9.50
2015,08,29,13,34,9.70
2015,08,29,13,35,10.70
2015,08,29,13,36,8.20
2015,08,29,13,37,14.80
2015,08,29,13,38,17.90
2015,08,29,13,39,16.60
2015,08,29,13,40,9.10
2015,08,29,13,41,13.40
2015,08,29,13,42,15.40
2015,08,29,13,43,11.10
2015,08,29,13,44,18.30
2015,08,29,13,45,15.90
2015,08,29,13,46,14.70
2015,08,29,13,47,21.00
2015,08,29,13,48,15.40
2015,08,29,13,49,15.00
2015,08,29,13,50,15.00
2015,08,29,13,51,16.70
2015,08,29,13,52,22.50
2015,08,29,13,53,29.60
2015,08,29,13,54,32.50
2015,08,29,13,55,32.30
2015,08,29,13,56,27.10
2015,08,29,13,57,21.00
2015,08,29,13,58,22.20
2015,08,29,13,59,28.90
2015,08,29,14,00,24.00
2015,08,29,14,01,23.60
2015,08,29,14,02,31.50
2015,08,29,14,03,24.50
2015,08,29,14,04,28.50
2015,08,29,14,05,33.20
2015,08,29,14,06,23.50
2015,08,29,14,07,21.90
2015,08,29,14,08,19.50
2015,08,29,14,09,19.70
2015,08,29,14,10,21.70
2015,08,29,14,11,27.20
2015,08,29,14,12,20.90
2015,08,29,14,13,22.00
2015,08,29,14,14,28.40
2015,08,29,14,15,31.30
2015,08,29,14,16,24.30
2015,08,29,14,17,37.00
2015,08,29,14,18,24.50
2015,08,29,14,19,32.30
2015,08,29,14,20,30.80
2015,08,29,14,21,24.90
2015,08,29,14,22,21.30
2015,08,29,14,23,24.30
2015,08,29,14,24,25.80
2015,08,29,14,25,21.20
2015,08,29,14,26,26.80
2015,08,29,14,27,23.10
2015,08,29,14,28,27.00
2015,08,29,14,29,25.80
2015,08,29,14,30,25.60
2015,08,29,14,31,26.30
2015,08,29,14,32,20.90
2015,08,29,14,33,22.40
2015,08,29,14,34,23.70
2015,08,29,14,35,23.20
2015,08,29,14,36,18.30
2015,08,29,14,37,20.30
2015,08,29,14,38,20.50
2015,08,29,14,39,16.80
2015,08,29,14,40,19.90
2015,08,29,14,41,15.50
2015,08,29,14,42,23.10
2015,08,29,14,43,27.00
2015,08,29,14,44,22.80
2015,08,29,14,45,19.60
2015,08,29,14,46,16.10
2015,08,29,14,47,16.30
2015,08,29,14,48,18.10
2015,08,29,14,49,13.40
2015,08,29,14,50,17.00
2015,08,29,14,51,11.00
2015,08,29,14,52,10.50
2015,08,29,14,53,16.30
2015,08,29,14,54,26.00
2015,08,29,14,55,16.90
2015,08,29,14,56,10.20
2015,08,29,14,57,15.50
2015,08,29,14,58,12.80
2015,08,29,14,59,14.90
2015,08,29,15,00,10.60
2015,08,29,15,01,11.80
2015,08,29,15,02,23.80
2015,08,29,15,03,24.00
2015,08,29,15,04,17.00
2015,08,29,15,05,12.10
2015,08,29,15,06,21.50
2015,08,29,15,07,16.10
2015,08,29,15,08,14.20
2015,08,29,15,09,21.80
2015,08,29,15,10,14.40
2015,08,29,15,11,22.30
2015,08,29,15,12,17.20
2015,08,29,15,13,12.50
2015,08,29,15,14,13.70
2015,08,29,15,15,17.20
2015,08,29,15,16,2.20
2015,08,29,15,17,0.00
2015,08,29,15,18,13.50
2015,08,29,15,19,21.00
2015,08,29,15,20,17.40
2015,08,29,15,21,12.50
2015,08,29,15,22,18.30
2015,08,29,15,23,12.30
2015,08,29,15,24,10.40
2015,08,29,15,25,15.00
2015,08,29,15,26,19.10
2015,08,29,15,27,5.40
2015,08,29,15,28,1.10
2015,08,29,15,29,16.60
2015,08,29,15,30,12.60
2015,08,29,15,31,12.50
2015,08,29,15,32,10.20
2015,08,29,15,33,13.80
2015,08,29,15,34,6.60
2015,08,29,15,35,11.80
2015,08,29,15,36,19.20
2015,08,29,15,37,6.00
2015,08,29,15,38,0.00
2015,08,29,15,39,0.00
2015,08,29,15,40,0.00
2015,08,29,15,41,0.00
2015,08,29,15,42,0.10
2015,08,29,15,43,0.00
2015,08,29,15,44,0.00
2015,08,29,15,45,4.50
2015,08,29,15,46,4.20
2015,08,29,15,47,10.30
2015,08,29,15,48,0.30
2015,08,29,15,49,0.00
2015,08,29,15,50,1.50
2015,08,29,15,51,12.80
2015,08,29,15,52,12.80
2015,08,29,15,53,6.60
2015,08,29,15,54,0.00
2015,08,29,15,55,0.00
2015,08,29,15,56,0.00
2015,08,29,15,57,0.00
2015,08,29,15,58,0.00
2015,08,29,15,59,0.00
2015,08,29,16,00,0.00
2015,08,29,16,01,0.00
2015,08,29,16,02,0.00
2015,08,29,16,03,0.00
2015,08,29,16,04,0.00
2015,08,29,16,05,0.00
2015,08,29,16,06,0.00
2015,08,29,16,07,0.10
2015,08,29,16,08,0.00
2015,08,29,16,09,0.00
2015,08,29,16,10,0.10
2015,08,29,16,11,0.00
2015,08,29,16,12,0.00
2015,08,29,16,13,0.00
2015,08,29,16,14,0.00
2015,08,29,16,15,0.00
2015,08,29,16,16,0.20
2015,08,29,16,17,0.00
2015,08,29,16,18,0.00
2015,08,29,16,19,0.00
2015,08,29,16,20,0.00
2015,08,29,16,21,0.00
2015,08,29,16,22,0.00
2015,08,29,16,23,0.00
2015,08,29,16,24,0.00
2015,08,29,16,25,0.00
2015,08,29,16,26,0.00
2015,08,29,16,27,0.00
2015,08,29,16,28,0.00
2015,08,29,16,29,0.00
2015,08,29,16,30,0.00
2015,08,29,16,31,0.00
2015,08,29,16,32,0.00
2015,08,29,16,33,0.00
2015,08,29,16,34,0.00
2015,08,29,16,35,0.00
2015,08,29,16,36,0.00
2015,08,29,16,37,0.00
2015,08,29,16,38,0.00
2015,08,29,16,39,0.00
2015,08,29,16,40,0.00
2015,08,29,16,41,0.00
2015,08,29,16,42,0.00
2015,08,29,16,43,0.00
2015,08,29,16,44,0.00
2015,08,29,16,45,0.00
2015,08,29,16,46,0.00
2015,08,29,16,47,0.00
2015,08,29,16,48,0.00
2015,08,29,16,49,0.00
2015,08,29,16,50,0.00
2015,08,29,16,51,0.00
2015,08,29,16,52,0.00
2015,08,29,16,53,0.00
2015,08,29,16,54,0.00
2015,08,29,16,55,0.00
2015,08,29,16,56,0.00
2015,08,29,16,57,0.00
2015,08,29,16,58,0.00
2015,08,29,16,59,0.00
2015,08,29,17,00,0.00
2015,08,29,17,01,0.00
2015,08,29,17,02,0.00
2015,08,29,17,03,0.00
2015,08,29,17,04,0.00
2015,08,29,17,05,0.00
2015,08,29,17,06,0.00
2015,08,29,17,07,0.00
2015,08,29,17,08,0.00
2015,08,29,17,09,0.00
2015,08,29,17,10,0.00
2015,08,29,17,11,0.00
2015,08,29,17,12,0.00
2015,08,29,17,13,0.00
2015,08,29,17,14,0.00
2015,08,29,17,15,0.00
2015,08,29,17,16,0.00
2015,08,29,17,17,0.00
2015,08,29,17,18,0.00
2015,08,29,17,19,0.00
2015,08,29,17,20,0.00
2015,08,29,17,21,0.00
2015,08,29,17,22,0.00
2015,08,29,17,23,0.00
2015,08,29,17,24,0.00
2015,08,29,17,25,0.00
2015,08,29,17,26,0.00
2015,08,29,17,27,0.00
2015,08,29,17,28,0.00
2015,08,29,17,29,0.00
2015,08,29,17,30,0.00
2015,08,29,17,31,0.00
2015,08,29,17,32,0.00
2015,08,29,17,33,0.00
2015,08,29,17,34,0.00
2015,08,29,17,35,0.00
2015,08,29,17,36,0.00
2015,08,29,17,37,0.00
2015,08,29,17,38,0.00
2015,08,29,17,39,0.00
2015,08,29,17,40,0.00
2015,08,29,17,41,0.00
2015,08,29,17,42,0.00
2015,08,29,17,43,0.00
2015,08,29,17,44,0.00
2015,08,29,17,45,0.00
2015,08,29,17,46,0.00
2015,08,29,17,47,0.00
2015,08,29,17,48,0.00
2015,08,29,17,49,0.00
2015,08,29,17,50,0.00
2015,08,29,17,51,0.00
2015,08,29,17,52,0.00
2015,08,29,17,53,0.00
2015,08,29,17,54,0.00
2015,08,29,17,55,0.00
2015,08,29,17,56,0.00
2015,08,29,17,57,0.00
2015,08,29,17,58,0.00
2015,08,29,17,59,0.00